sat.trackr.live / text

‹ back to catalog

STARLINK-37695

NORAD 69824 · 2026-154F

PAYLOAD ACTIVE UNKNOWN

§ Identity

Operator
Country
US
Launch date
2026-07-05
Launch site
AFETR
Launch vehicle
Mass (kg)
RCS (m²)

Purposes: comms

External: N2YO · Heavens-Above · Gunter

§ Orbital elements

Epoch: 2026-09-19T17:11:43.355328Z

Period
93.85 min
Inclination
53.1595°
Eccentricity
0.0001031
Mean motion
15.34407825 rev/d
Perigee alt
462.0 km
Apogee alt
463.4 km
Semi-major
6,840.8 km
B*
3.9377e-4
RAAN
335.6787°
Arg perigee
81.1917°
Mean anomaly
278.9202°
Rev number
1,311

§ Raw data

STARLINK-376951 69824U 26154F   26262.71647402  .00012954  00000+0  39377-3 0  99982 69824  53.1595 335.6787 0001031  81.1917 278.9202 15.34407825 13115

JSON: /api/v1/satellites/69824 · /tle

For live sub-satellite position, see the globe view (requires WebGL).

§ Visibility from observer

Set your observer location to see the next 7 days of passes ≥ 10°. The values pass through the URL so the page stays shareable.

No JS? Fill the form by hand. The geolocation button needs JavaScript.